Notices

What's New in latest Release from April 7th, 2021:

- Updated Glossary, including Speed of Maximum Gust, and Total Hourly Precipitation

- Updated national and regional climate services offices contacts and prices information

- Addition of station inventory lists for 1981-2010, 1971-2000, and 1961-1990 Normals.

If you haven't already, please take our survey and provide feedback about our website: https://eccc.sondage-survey.ca/f/LanguageSelection.aspx?s=442ca660-fcf1-47c0-95a9-59707d6fd709

Hourly Data Report for July 31, 2019

TORONTO CITY
ONTARIO
Current Station Operator: ECCC - MSC

43°40'00.000" N
79°24'00.000" W
112.50 m
6158355
71508
XTO

Download Data

Hourly Data (July 2019)
Hourly Data Report for July 31, 2019
TIME
LST
Temp Definition
°C
Dew Point Definition
°C
Rel Hum Definition
%
Precip. Amount Definition
mm

Wind Dir Definition
10's deg

Wind Spd Definition
km/h
Visibility Definition
km
Stn Press Definition
kPa
Hmdx Definition


Wind Chill Definition


Weather Definition


00:00 21.0 14.5 66 0.0       100.33 25   LegendNANA
01:00 20.7 13.9 65 0.0       100.31     LegendNANA
02:00 19.6 13.5 68 0.0       100.30     LegendNANA
03:00 19.4 11.5 60 0.0       100.32     LegendNANA
04:00 18.5 11.5 64 0.0       100.36     LegendNANA
05:00 17.6 11.7 68 0.0       100.42     LegendNANA
06:00 17.7 12.0 69 0.0       100.45     LegendNANA
07:00 19.0 11.5 62 0.0       100.48     LegendNANA
08:00 20.3 10.7 54 0.0       100.53     LegendNANA
09:00 21.3 12.3 56 0.0       100.57     LegendNANA
10:00 22.1 13.5 58 0.0       100.60 25   LegendNANA
11:00 23.5 12.8 51 0.0       100.57 26   LegendNANA
12:00 24.7 12.3 46 0.0       100.56 27   LegendNANA
13:00 25.1 12.6 46 0.0       100.53 28   LegendNANA
14:00 25.0 13.3 48 0.0       100.51 28   LegendNANA
15:00 24.4 12.5 47 0.0       100.48 27   LegendNANA
16:00 25.1 13.4 48 0.0       100.44 28   LegendNANA
17:00 25.0 12.8 47 0.0       100.42 28   LegendNANA
18:00 24.7 12.4 46 0.0       100.44 27   LegendNANA
19:00 24.7 11.0 42 0.0       100.46 26   LegendNANA
20:00 23.0 10.5 45 0.0       100.53 25   LegendNANA
21:00 22.0 10.8 49 0.0       100.59     LegendNANA
22:00 20.5 10.8 54 0.0       100.61     LegendNANA
23:00 19.8 11.0 57 0.0       100.60     LegendNANA

Notes on Data Quality.

Legend

  • E = Estimated
  • M = Missing
  • NA = Not Available*
  • [empty] = Indicates an unobserved value
Date modified: